Weather History for Mandan, ND

Change the Weather History Date:

Wednesday, November 23, 2011

  Actual Average (KBIS) Record (KBIS)
Temperature  
Mean Temperature 46 °F 25 °F  
Max Temperature 60 °F 35 °F 62 °F (2011)
Min Temperature 32 °F 15 °F -21 °F (1985)
Degree Days  
Heating Degree Days 19 40  
Month to date heating degree days 780  
Since 1 July heating degree days 1692  
Cooling Degree Days 0 0  
Month to date cooling degree days 0  
Year to date cooling degree days 520  
Moisture  
Dew Point 29 °F    
Average Humidity 59    
Maximum Humidity 81    
Minimum Humidity 27    
Precipitation  
Precipitation 0.00 in 0.02 in 0.51 in (1996)
Month to date precipitation 0.59  
Year to date precipitation 17.24  
Snow  
Snow 0.00 in 0.30 in 8.90 in (1996)
Month to date snowfall 6.7  
Since 1 July snowfall 9.1  
Since 1 September snowfall 9.1  
Snow Depth -    
Sea Level Pressure  
Sea Level Pressure 29.87 in    
Wind  
Wind Speed 11 mph (SSW)    
Max Wind Speed 18 mph    
Max Gust Speed 29 mph    
Visibility 10 miles    
Events      
T = Trace of Precipitation, MM = Missing Value Source: NWS Daily Summary

Daily Weather History Graph

Daily Weather History Graph

Search for Another Location

Airport:

Trip Planner

Search our weather history database for the weather conditions in past years. The results will help you decide how hot, cold, wet, or windy it might be!

Date:

Astronomy

Nov. 23, 2011 Rise Set
Actual Time 7:57 AM CST 5:02 PM CST
Civil Twilight 7:23 AM CST 5:36 PM CST
Nautical Twilight 6:46 AM CST 6:13 PM CST
Astronomical Twilight 6:09 AM CST 6:49 PM CST
Moon 6:01 AM CST (11/23) 3:46 PM CST (11/23)
Length of Visible Light 10h 12m
Length of Day
9h 05m
Waning Crescent, 3% of the Moon is Illuminated
Nov 23
Waning Crescent
Nov 25
New
Dec 2
First Quarter
Dec 10
Full
Dec 17
Last Quarter

Hourly Weather History & Observations

Time (CST) Temp. Windchill Dew Point Humidity Pressure Visibility Wind Dir Wind Speed Gust Speed Precip Events Conditions
12:15 AM 35.6 °F 28.0 °F 26.6 °F 70% 29.90 in 10.0 mi SSW 10.4 mph - N/A   Clear
12:35 AM 35.6 °F 27.5 °F 26.6 °F 70% 29.91 in 10.0 mi SW 11.5 mph - N/A   Clear
12:55 AM 32.0 °F 23.0 °F 26.6 °F 80% 29.91 in 10.0 mi SW 11.5 mph - N/A   Clear
1:15 AM 32.0 °F 22.5 °F 26.6 °F 80% 29.91 in 10.0 mi SW 12.7 mph - N/A   Clear
1:35 AM 33.8 °F 24.8 °F 26.6 °F 75% 29.90 in 10.0 mi SSW 12.7 mph - N/A   Clear
1:55 AM 33.8 °F 25.3 °F 26.6 °F 75% 29.90 in 10.0 mi SW 11.5 mph - N/A   Clear
2:35 AM 32.0 °F 23.0 °F 26.6 °F 80% 29.90 in 10.0 mi SW 11.5 mph - N/A   Clear
3:15 AM 33.8 °F 26.4 °F 26.6 °F 75% 29.91 in 10.0 mi SW 9.2 mph - N/A   Clear
3:35 AM 33.8 °F 25.8 °F 26.6 °F 75% 29.91 in 10.0 mi SW 10.4 mph - N/A   Clear
3:55 AM 35.6 °F 29.2 °F 26.6 °F 70% 29.91 in 10.0 mi SW 8.1 mph - N/A   Clear
4:15 AM 35.6 °F 28.6 °F 28.4 °F 75% 29.91 in 10.0 mi SW 9.2 mph - N/A   Clear
4:35 AM 35.6 °F 29.2 °F 28.4 °F 75% 29.90 in 10.0 mi SW 8.1 mph - N/A   Clear
5:15 AM 33.8 °F 25.3 °F 26.6 °F 75% 29.90 in 10.0 mi SW 11.5 mph - N/A   Clear
5:35 AM 35.6 °F 28.6 °F 26.6 °F 70% 29.90 in 10.0 mi WSW 9.2 mph - N/A   Clear
5:55 AM 33.8 °F 28.6 °F 26.6 °F 75% 29.91 in 10.0 mi WSW 5.8 mph - N/A   Clear
6:15 AM 35.6 °F 29.2 °F 28.4 °F 75% 29.91 in 10.0 mi SW 8.1 mph - N/A   Clear
6:35 AM 33.8 °F 27.0 °F 26.6 °F 75% 29.91 in 10.0 mi SW 8.1 mph - N/A   Clear
6:55 AM 33.8 °F 27.0 °F 28.4 °F 81% 29.92 in 10.0 mi SW 8.1 mph - N/A   Clear
7:15 AM 32.0 °F 24.8 °F 26.6 °F 80% 29.91 in 10.0 mi SW 8.1 mph - N/A   Clear
7:35 AM 32.0 °F 24.8 °F 26.6 °F 80% 29.91 in 10.0 mi SW 8.1 mph - N/A   Clear
7:55 AM 33.8 °F 26.4 °F 26.6 °F 75% 29.91 in 10.0 mi SW 9.2 mph - N/A   Clear
8:15 AM 35.6 °F 29.9 °F 26.6 °F 70% 29.92 in 10.0 mi SW 6.9 mph - N/A   Clear
8:35 AM 35.6 °F 28.0 °F 28.4 °F 75% 29.92 in 10.0 mi SW 10.4 mph - N/A   Clear
8:55 AM 39.2 °F 33.0 °F 28.4 °F 65% 29.92 in 10.0 mi SSW 9.2 mph - N/A   Clear
9:15 AM 37.4 °F 30.8 °F 28.4 °F 70% 29.92 in 10.0 mi SSW 9.2 mph - N/A   Clear
9:35 AM 37.4 °F 30.8 °F 28.4 °F 70% 29.92 in 10.0 mi South 9.2 mph - N/A   Clear
9:55 AM 39.2 °F 33.0 °F 30.2 °F 70% 29.91 in 10.0 mi South 9.2 mph - N/A   Clear
10:15 AM 41.0 °F 35.2 °F 30.2 °F 65% 29.91 in 10.0 mi South 9.2 mph - N/A   Clear
10:35 AM 42.8 °F 35.8 °F 30.2 °F 61% 29.92 in 10.0 mi South 13.8 mph - N/A   Clear
10:55 AM 44.6 °F 38.8 °F 30.2 °F 57% 29.92 in 10.0 mi South 11.5 mph - N/A   Clear
11:15 AM 46.4 °F 41.5 °F 32.0 °F 57% 29.91 in 10.0 mi South 10.4 mph - N/A   Clear
11:35 AM 48.2 °F - 32.0 °F 54% 29.91 in 10.0 mi South 11.5 mph - N/A   Clear
11:55 AM 53.6 °F - 30.2 °F 41% 29.90 in 10.0 mi South 12.7 mph - N/A   Clear
12:15 PM 51.8 °F - 28.4 °F 41% 29.89 in 10.0 mi SSW 12.7 mph - N/A   Clear
12:35 PM 53.6 °F - 28.4 °F 38% 29.89 in 10.0 mi SSW 6.9 mph - N/A   Clear
12:55 PM 57.2 °F - 28.4 °F 33% 29.88 in 10.0 mi SW 10.4 mph - N/A   Clear
1:15 PM 57.2 °F - 30.2 °F 36% 29.86 in 10.0 mi SSW 11.5 mph 16.1 mph N/A   Clear
1:35 PM 57.2 °F - 28.4 °F 33% 29.85 in 10.0 mi SSW 12.7 mph 18.4 mph N/A   Clear
1:55 PM 59.0 °F - 28.4 °F 31% 29.84 in 10.0 mi SSW 16.1 mph - N/A   Clear
2:15 PM 59.0 °F - 28.4 °F 31% 29.83 in 10.0 mi SSW 13.8 mph 21.9 mph N/A   Clear
2:35 PM 60.8 °F - 28.4 °F 29% 29.83 in 10.0 mi SSW 13.8 mph 19.6 mph N/A   Clear
3:15 PM 60.8 °F - 26.6 °F 27% 29.82 in 10.0 mi SSW 18.4 mph 24.2 mph N/A   Clear
3:35 PM 59.0 °F - 26.6 °F 29% 29.81 in 10.0 mi SSW 17.3 mph 28.8 mph N/A   Clear
3:55 PM 57.2 °F - 28.4 °F 33% 29.81 in 10.0 mi SSW 11.5 mph - N/A   Clear
4:15 PM 57.2 °F - 28.4 °F 33% 29.81 in 10.0 mi SSW 10.4 mph - N/A   Clear
4:35 PM 53.6 °F - 28.4 °F 38% 29.80 in 10.0 mi South 10.4 mph - N/A   Clear
4:55 PM 53.6 °F - 28.4 °F 38% 29.80 in 10.0 mi South 9.2 mph - N/A   Clear
5:15 PM 50.0 °F - 28.4 °F 43% 29.79 in 10.0 mi SSW 10.4 mph - N/A   Clear
5:35 PM 50.0 °F - 30.2 °F 47% 29.78 in 10.0 mi South 9.2 mph - N/A   Clear
5:55 PM 46.4 °F 42.9 °F 28.4 °F 50% 29.78 in 10.0 mi South 6.9 mph - N/A   Clear
6:15 PM 44.6 °F 39.7 °F 28.4 °F 53% 29.78 in 10.0 mi SSW 9.2 mph - N/A   Clear
6:35 PM 46.4 °F 40.1 °F 32.0 °F 57% 29.77 in 10.0 mi SSW 15.0 mph - N/A   Clear
6:55 PM 46.4 °F 40.7 °F 32.0 °F 57% 29.77 in 10.0 mi SSW 12.7 mph - N/A   Clear
7:15 PM 44.6 °F 38.8 °F 32.0 °F 61% 29.76 in 10.0 mi SSW 11.5 mph - N/A   Clear
7:55 PM 42.8 °F 36.6 °F 32.0 °F 66% 29.75 in 10.0 mi SSW 11.5 mph - N/A   Clear
8:15 PM 42.8 °F 37.5 °F 32.0 °F 66% 29.75 in 10.0 mi SSW 9.2 mph - N/A   Clear
8:35 PM 42.8 °F 35.8 °F 32.0 °F 66% 29.75 in 10.0 mi SSW 13.8 mph - N/A   Clear
8:55 PM 41.0 °F 33.9 °F 32.0 °F 70% 29.75 in 10.0 mi South 12.7 mph - N/A   Clear
9:15 PM 41.0 °F 33.5 °F 32.0 °F 70% 29.75 in 10.0 mi SSW 13.8 mph 18.4 mph N/A   Clear
9:35 PM 41.0 °F 33.5 °F 32.0 °F 70% 29.74 in 10.0 mi SSW 13.8 mph - N/A   Clear
9:55 PM 39.2 °F 30.5 °F 32.0 °F 75% 29.73 in 10.0 mi SSW 16.1 mph - N/A   Clear
10:15 PM 39.2 °F 32.0 °F 32.0 °F 75% 29.73 in 10.0 mi SSW 11.5 mph - N/A   Clear
10:35 PM 37.4 °F 29.8 °F 32.0 °F 81% 29.73 in 10.0 mi SSW 11.5 mph - N/A   Clear
10:55 PM 37.4 °F 29.8 °F 32.0 °F 81% 29.72 in 10.0 mi SSW 11.5 mph - N/A   Clear
11:15 PM 39.2 °F 31.2 °F 32.0 °F 75% 29.72 in 10.0 mi SSW 13.8 mph - N/A   Clear
11:35 PM 39.2 °F 30.8 °F 32.0 °F 75% 29.71 in 10.0 mi SW 15.0 mph - N/A   Clear
11:55 PM 39.2 °F 32.5 °F 30.2 °F 70% 29.71 in 10.0 mi SW 10.4 mph - N/A   Clear